Location: *
(29.1167°S, 130.0000°E)
Time: 16:40:04
(UTC+00:00)

YAOGAN 6 - Pass Details

Date: 21 July 2019
Orbit: 466 x 505 km, 97.1° (Epoch: 21 August)

Event Time Altitude Azimuth Distance (km) Brightness Sun altitude
Exits shadow 10:17:18 22° 25° (NNE) 1,132 4.3 -20.5°
Drops below altitude 10° 10:18:53 10° 11° (N) 1,709 5.3 -20.8°
Sets 10:21:02 0° 3° (N) 2,579 6.4 -21.3°
